{"data":{"norad_id":44231,"epoch":"2026-09-19T21:04:50.176128Z","epoch_age_seconds":68003,"freshness":"FRESH","line1":"1 44231U 19027A   26262.87835852 -.00000251  00000+0  00000+0 0  9994","line2":"2 44231   1.8921  74.2779 0008963 278.9281 106.3369  1.00270663 27031","mean_motion":1.00270663,"eccentricity":0.0008963,"inclination_deg":1.8921,"raan_deg":74.2779,"arg_perigee_deg":278.9281,"mean_anomaly_deg":106.3369,"bstar":0,"rev_number":2703,"period_min":1436.1129735424,"perigee_km":35749.116970274,"apogee_km":35824.702032633,"semimajor_km":42165.046501453,"source":"CELESTRAK","updated_at":"2026-09-20T09:00:46.711867Z"}}